TimeMDT,TemperatureF,Dew PointF,Humidity,Sea Level PressureIn,VisibilityMPH,Wind Direction,Wind SpeedMPH,Gust SpeedMPH,PrecipitationIn,Events,Conditions,WindDirDegrees,DateUTC
12:15 AM,66.2,21.7,18,30.14,10.0,West,5.8,-,N/A,,Clear,270,2012-10-04 06:15:00
12:35 AM,65.8,22.5,19,30.15,10.0,West,8.1,-,N/A,,Clear,260,2012-10-04 06:35:00
12:55 AM,64.6,23.5,21,30.16,10.0,West,6.9,-,N/A,,Clear,260,2012-10-04 06:55:00
1:15 AM,65.3,24.4,21,30.16,10.0,West,10.4,-,N/A,,Clear,260,2012-10-04 07:15:00
1:35 AM,64.8,25.2,22,30.16,10.0,West,11.5,-,N/A,,Clear,270,2012-10-04 07:35:00
1:55 AM,66.4,26.6,22,30.17,10.0,West,11.5,-,N/A,,Clear,270,2012-10-04 07:55:00
2:15 AM,64.9,27.1,24,30.18,10.0,West,11.5,-,N/A,,Clear,270,2012-10-04 08:15:00
2:35 AM,66.4,27.0,23,30.18,10.0,West,10.4,-,N/A,,Clear,280,2012-10-04 08:35:00
2:55 AM,65.5,27.3,24,30.18,10.0,WNW,9.2,-,N/A,,Clear,290,2012-10-04 08:55:00
3:15 AM,63.7,27.3,25,30.19,10.0,West,9.2,-,N/A,,Clear,260,2012-10-04 09:15:00
3:35 AM,66.6,27.5,23,30.18,10.0,West,13.8,-,N/A,,Clear,280,2012-10-04 09:35:00
3:55 AM,66.4,27.5,23,30.19,10.0,SE,5.8,-,N/A,,Clear,130,2012-10-04 09:55:00
4:15 AM,66.2,27.5,23,30.19,10.0,WNW,3.5,-,N/A,,Clear,300,2012-10-04 10:15:00
4:35 AM,60.3,27.5,29,30.20,10.0,Calm,Calm,-,N/A,,Clear,0,2012-10-04 10:35:00
4:55 AM,62.1,27.7,27,30.20,10.0,SSE,5.8,-,N/A,,Clear,160,2012-10-04 10:55:00
5:15 AM,60.1,27.5,29,30.21,10.0,South,6.9,-,N/A,,Clear,190,2012-10-04 11:15:00
5:35 AM,59.2,27.7,30,30.21,10.0,East,4.6,-,N/A,,Clear,90,2012-10-04 11:35:00
5:55 AM,60.4,26.8,28,30.21,10.0,Calm,Calm,-,N/A,,Clear,0,2012-10-04 11:55:00
6:15 AM,62.1,25.7,25,30.21,10.0,WSW,4.6,-,N/A,,Clear,240,2012-10-04 12:15:00
6:35 AM,57.4,25.9,30,30.22,10.0,SW,3.5,-,N/A,,Clear,220,2012-10-04 12:35:00
6:55 AM,55.2,26.2,33,30.23,10.0,SW,8.1,-,N/A,,Clear,220,2012-10-04 12:55:00
7:15 AM,55.9,26.6,32,30.23,10.0,SW,9.2,-,N/A,,Clear,220,2012-10-04 13:15:00
7:35 AM,59.2,27.1,29,30.23,10.0,SSW,8.1,-,N/A,,Clear,210,2012-10-04 13:35:00
7:55 AM,62.4,27.9,27,30.24,10.0,SW,6.9,-,N/A,,Clear,220,2012-10-04 13:55:00
8:15 AM,65.5,28.4,25,30.25,10.0,SSW,6.9,-,N/A,,Clear,210,2012-10-04 14:15:00
8:35 AM,68.4,29.1,23,30.25,10.0,SW,5.8,-,N/A,,Clear,220,2012-10-04 14:35:00
8:55 AM,71.1,29.3,21,30.25,10.0,Calm,Calm,-,N/A,,Clear,0,2012-10-04 14:55:00
9:15 AM,72.9,29.8,20,30.25,10.0,Calm,Calm,-,N/A,,Clear,0,2012-10-04 15:15:00
9:35 AM,70.2,29.3,22,30.25,10.0,NE,3.5,-,N/A,,Clear,50,2012-10-04 15:35:00
9:55 AM,72.5,29.5,20,30.26,10.0,NE,3.5,-,N/A,,Clear,40,2012-10-04 15:55:00
10:15 AM,75.4,29.3,18,30.26,10.0,East,3.5,-,N/A,,Clear,90,2012-10-04 16:15:00
10:35 AM,77.0,30.4,18,30.26,10.0,SSW,5.8,-,N/A,,Clear,210,2012-10-04 16:35:00
10:55 AM,77.2,31.8,19,30.26,10.0,SW,6.9,-,N/A,,Clear,230,2012-10-04 16:55:00
11:15 AM,78.4,31.6,18,30.25,10.0,WSW,5.8,-,N/A,,Clear,250,2012-10-04 17:15:00
11:35 AM,79.3,31.5,18,30.25,10.0,Calm,Calm,-,N/A,,Clear,0,2012-10-04 17:35:00
11:55 AM,79.5,31.5,17,30.25,10.0,NNW,4.6,-,N/A,,Clear,330,2012-10-04 17:55:00
12:15 PM,81.1,31.8,17,30.23,10.0,West,8.1,-,N/A,,Clear,260,2012-10-04 18:15:00
12:35 PM,82.4,31.8,16,30.23,10.0,WNW,4.6,-,N/A,,Clear,300,2012-10-04 18:35:00
12:55 PM,83.1,31.6,16,30.22,10.0,SSE,11.5,27.6,N/A,,Clear,160,2012-10-04 18:55:00
1:15 PM,84.6,29.7,14,30.21,10.0,SW,13.8,19.6,N/A,,Clear,220,2012-10-04 19:15:00
1:35 PM,84.2,30.0,14,30.19,10.0,WNW,4.6,-,N/A,,Clear,290,2012-10-04 19:35:00
1:55 PM,85.3,30.4,14,30.18,10.0,West,11.5,18.4,N/A,,Clear,280,2012-10-04 19:55:00
2:15 PM,85.6,30.2,14,30.17,10.0,WSW,11.5,21.9,N/A,,Clear,240,2012-10-04 20:15:00
2:35 PM,85.6,30.6,14,30.16,10.0,South,6.9,10.4,N/A,,Clear,190,2012-10-04 20:35:00
3:15 PM,87.6,29.8,13,30.14,10.0,South,11.5,17.3,N/A,,Clear,170,2012-10-04 21:15:00
3:35 PM,87.4,30.7,13,30.14,10.0,South,15.0,20.7,N/A,,Clear,170,2012-10-04 21:35:00
3:55 PM,86.4,29.8,13,30.14,10.0,South,12.7,20.7,N/A,,Clear,170,2012-10-04 21:55:00
4:15 PM,86.5,29.8,13,30.12,10.0,SSE,12.7,19.6,N/A,,Clear,150,2012-10-04 22:15:00
4:35 PM,86.4,29.3,13,30.12,10.0,SSE,12.7,-,N/A,,Clear,160,2012-10-04 22:35:00
4:55 PM,86.2,28.0,12,30.11,10.0,South,11.5,20.7,N/A,,Clear,190,2012-10-04 22:55:00
5:15 PM,86.0,27.9,12,30.10,10.0,WSW,5.8,-,N/A,,Clear,250,2012-10-04 23:15:00
5:35 PM,86.2,27.9,12,30.10,10.0,South,9.2,-,N/A,,Clear,190,2012-10-04 23:35:00
5:55 PM,85.1,27.7,12,30.10,10.0,SSW,10.4,-,N/A,,Clear,210,2012-10-04 23:55:00
6:15 PM,84.2,27.5,13,30.09,10.0,South,8.1,-,N/A,,Clear,190,2012-10-05 00:15:00
6:35 PM,83.1,27.0,13,30.09,10.0,South,8.1,-,N/A,,Clear,180,2012-10-05 00:35:00
7:15 PM,80.8,26.4,14,30.10,10.0,SSW,9.2,-,N/A,,Clear,200,2012-10-05 01:15:00
7:35 PM,77.0,25.9,15,30.10,10.0,West,4.6,-,N/A,,Clear,260,2012-10-05 01:35:00
8:15 PM,76.6,25.9,15,30.11,10.0,WNW,4.6,-,N/A,,Clear,290,2012-10-05 02:15:00
8:35 PM,72.5,28.0,19,30.11,10.0,NW,8.1,-,N/A,,Clear,310,2012-10-05 02:35:00
8:55 PM,69.1,28.4,22,30.12,10.0,West,5.8,-,N/A,,Clear,280,2012-10-05 02:55:00
9:15 PM,71.1,28.0,20,30.12,10.0,West,6.9,-,N/A,,Clear,280,2012-10-05 03:15:00
9:35 PM,70.9,28.0,20,30.12,10.0,West,8.1,-,N/A,,Clear,260,2012-10-05 03:35:00
9:55 PM,66.4,28.4,24,30.12,10.0,WSW,10.4,-,N/A,,Clear,250,2012-10-05 03:55:00
10:15 PM,65.5,28.9,25,30.13,10.0,WSW,8.1,-,N/A,,Clear,250,2012-10-05 04:15:00
10:35 PM,67.3,28.4,23,30.14,10.0,WSW,8.1,-,N/A,,Clear,250,2012-10-05 04:35:00
10:55 PM,65.5,28.4,25,30.14,10.0,WSW,10.4,-,N/A,,Clear,240,2012-10-05 04:55:00
11:15 PM,67.3,28.8,24,30.14,10.0,WSW,8.1,-,N/A,,Clear,240,2012-10-05 05:15:00
11:35 PM,66.6,29.1,25,30.14,10.0,WSW,6.9,-,N/A,,Clear,250,2012-10-05 05:35:00
11:55 PM,66.2,28.8,25,30.15,10.0,East,4.6,-,N/A,,Clear,90,2012-10-05 05:55:00